Regional Weather Roundup
Issued by NWS

Home | Current Version | Previous Version | Graphics & Text | Print | Product List | Glossary On
Versions: 1 2 3 4 5 6 7 8 9 10 11 12 13 14 15 16 17 18 19 20 21 22 23 24 25 26 27 28 29 30 31 32 33 34 35 36 37 38 39 40 41 42 43 44 45 46 47 48 49 50
000
ASUS45 KTFX 291610
RWRMT
MONTANA REGIONAL WEATHER ROUNDUP
NATIONAL WEATHER SERVICE GREAT FALLS MT
1000 AM MDT SAT AUG 29 2015

NOTE: "FAIR" INDICATES FEW OR NO CLOUDS BELOW 12000 FEET WITH NO
SIGNIFICANT WEATHER AND/OR OBSTRUCTIONS TO VISIBILITY.

MTZ001>007-043-291700-
WEST OF THE DIVIDE

CITY           SKY/WX    TMP DP  RH WIND       PRES   REMARKS
KALISPELL      CLOUDY    64  46  52 W3        29.81S SMOKE
MISSOULA       CLOUDY    60  45  57 NW9       29.90R HAZE
BUTTE          CLOUDY    75  39  27 S12       30.05F HAZE
MULLAN PASS    CLOUDY    63  38  39 VRB5      29.93S HAZE
DEER LODGE       N/A     73  41  31 S9        30.00F
EUREKA           N/A     61  43  51 SW3       29.79F
HAMILTON         N/A     63  50  63 NW5       29.87F
LIBBY            N/A     61  45  55 CALM      29.77F
RONAN            N/A     63  52  67 CALM      29.90R
$$

MTZ008-052>055-291700-
SOUTHWEST MONTANA

CITY           SKY/WX    TMP DP  RH WIND       PRES   REMARKS
BOZEMAN        CLOUDY    69  47  45 S3        30.01F HAZE
DILLON         PTSUNNY   68  45  43 CALM      30.03F HAZE
W YELLOWSTONE  PTSUNNY   57  37  47 W3        30.23F
$$

MTZ009-010-012-014-046-048-049-054-291700-
EAST SLOPES AND CENTRAL MONTANA

CITY           SKY/WX    TMP DP  RH WIND       PRES   REMARKS
CUT BANK       CLOUDY    67  40  37 E6        29.87F HAZE
GREAT FALLS    CLOUDY    80  40  23 E9        29.88F HAZE
MALMSTROM AFB  PTSUNNY   83  38  20 SE18      29.86F
HELENA         CLOUDY    71  44  37 N5        29.94F SMOKE
$$

MTZ011-013-016-021-045-047-050-051-291700-
NORTH CENTRAL MONTANA

CITY           SKY/WX    TMP DP  RH WIND       PRES   REMARKS
HAVRE          CLOUDY    76  47  35 E7        29.86F HAZE
LEWISTOWN      CLOUDY    74  48  39 E7        29.99F HAZE
N BAR RANCH      N/A     72  46  40 CALM      30.06S HAZE
CHINOOK          N/A     72  52  49 E5        29.86F
FORT BENTON      N/A     82  45  26 E6        29.86F
$$

MTZ017>020-022>027-061-062-291700-
NORTHEAST MONTANA

CITY           SKY/WX    TMP DP  RH WIND       PRES   REMARKS
GLASGOW        CLOUDY    73  43  33 CALM      29.89F HAZE
JORDAN           N/A     78  45  30 W3        29.92S
SIDNEY         MOSUNNY   73  52  46 S10       29.90F
WOLF POINT     CLOUDY    76  46  34 SW3       29.89S HAZE
MALTA            N/A     72  51  47 CALM      29.85F
PLENTYWOOD       N/A     70  46  43 CALM      29.89S
POPLAR           N/A     75  46  35 NW6       29.89S
$$

MTZ028>42-056>058-291700-
SOUTHCENTRAL AND SOUTHEAST MONTANA

CITY           SKY/WX    TMP DP  RH WIND       PRES   REMARKS
BAKER          SUNNY     83  49  30 S6        29.99S HAZE
BILLINGS       PTSUNNY   72  43  35 SW10      30.01F
LIVINGSTON     CLOUDY    68  43  40 CALM      30.06F HAZE
MILES CITY     MOSUNNY   75  48  38 S6        29.95R HAZE
FORSYTH          N/A     79  46  31 N3        29.95S
LAUREL           N/A     71  46  40 CALM      30.00F
ROUNDUP          N/A     72  42  33 CALM      29.91F
$$

REGIONAL REPORTS...DAKOTAS

CITY           SKY/WX    TMP DP  RH WIND       PRES   REMARKS
WILLISTON      PTSUNNY   72  55  55 S6        29.90F HAZE
MINOT          CLOUDY    74  55  51 S6        29.90S HAZE
DICKINSON      SUNNY     86  44  23 S13       29.96S HAZE
CROSBY           N/A     72  50  46 S12G18    29.86S HAZE
BISMARCK       CLOUDY    72  61  68 CALM      29.96S
GRAND FORKS    MOSUNNY   70  66  87 S8        29.91S
FARGO          SUNNY     72  63  73 S15       29.95S
BUFFALO SD       N/A     78  56  46 S5        29.95S
RAPID CITY     SUNNY     73  59  61 SE5       30.06S
$$

REGIONAL REPORTS...WYOMING/IDAHO/WASHINGTON

CITY           SKY/WX    TMP DP  RH WIND       PRES   REMARKS
GILLETTE       SUNNY     82  45  27 S13       30.08F
SHERIDAN       SUNNY     75  47  36 NE3       30.04S
BUFFALO WY     SUNNY     83  42  23 E6        30.11F
CODY           MOSUNNY   79  41  25 SW12      30.11S
YELLOWSTONE LA   N/A     62  42  47 CALM      30.34F
IDAHO FALLS    PTSUNNY   72  50  45 SE7       30.06F
SALMON         CLOUDY    66  52  59 CALM      29.94S
BOISE          CLOUDY    80  43  26 SE12      29.86R
SPOKANE        CLOUDY    74  43  32 SE7       29.62S HAZE
$$

REGIONAL REPORTS...ALBERTA

CITY           SKY/WX    TMP DP  RH WIND       PRES   REMARKS
EDMONTON       MOSUNNY   61  48  63 NE5       29.75F
CALGARY        PTSUNNY   68  48  49 NE6       29.81S SMOKE
LETHBRIDGE     CLOUDY    64  48  55 E3        29.80F SMOKE
MEDICINE HAT   PTSUNNY   75  45  33 SW7       29.82R SMOKE
WATERTON GATE    N/A     68  45  42 SW5         N/A
CARDSTON         N/A     66  46  48 SE3         N/A
MILK RIVER       N/A     68  43  40 S6          N/A
ONEFOUR          N/A     73  41  31 SE8         N/A
$$

REGIONAL REPORTS...SASKATCHEWAN

CITY           SKY/WX    TMP DP  RH WIND       PRES   REMARKS
SWIFT CURRENT  SUNNY     75  48  38 SW12G17   29.85S HAZE
REGINA         MOSUNNY   70  59  68 S3        29.82F SMOKE
SASKATOON      MOSUNNY   70  54  56 SW12      29.74S
CYPRESS HILLS    N/A     73  39  29 S6          N/A
VAL MARIE        N/A     70  52  52 E1          N/A
ROCKGLEN         N/A     72  48  43 SW7         N/A
$$


USA.gov is the U.S. government's official web portal to all federal, state and local government web resources and services.